TimeEDT,TemperatureF,Dew PointF,Humidity,Sea Level PressureIn,VisibilityMPH,Wind Direction,Wind SpeedMPH,Gust SpeedMPH,PrecipitationIn,Events,Conditions,WindDirDegrees,DateUTC
12:51 AM,73.0,63.0,71,30.04,10.0,South,4.6,-,N/A,,Clear,180,2013-08-01 04:51:00
1:27 AM,71.6,62.6,73,30.03,10.0,Calm,Calm,-,N/A,,Overcast,0,2013-08-01 05:27:00
1:51 AM,72.0,63.0,73,30.02,10.0,South,4.6,-,N/A,,Overcast,170,2013-08-01 05:51:00
2:51 AM,72.0,63.0,73,30.00,10.0,South,3.5,-,N/A,,Overcast,170,2013-08-01 06:51:00
3:51 AM,72.0,63.0,73,29.98,10.0,South,3.5,-,N/A,,Overcast,190,2013-08-01 07:51:00
4:51 AM,72.0,63.0,73,29.98,10.0,South,4.6,-,N/A,,Overcast,170,2013-08-01 08:51:00
5:51 AM,72.0,64.0,76,29.97,10.0,SSE,3.5,-,N/A,,Mostly Cloudy,160,2013-08-01 09:51:00
6:51 AM,73.0,64.0,73,29.97,10.0,South,4.6,-,N/A,,Mostly Cloudy,170,2013-08-01 10:51:00
7:51 AM,73.9,64.0,71,29.97,10.0,SSE,6.9,-,N/A,,Mostly Cloudy,160,2013-08-01 11:51:00
8:51 AM,75.0,63.0,66,29.96,10.0,South,9.2,-,N/A,,Overcast,180,2013-08-01 12:51:00
9:51 AM,73.0,66.0,79,29.96,9.0,South,10.4,-,0.00,Rain,Light Rain,190,2013-08-01 13:51:00
10:51 AM,70.0,66.0,87,29.96,6.0,South,8.1,-,0.02,Rain,Light Rain,190,2013-08-01 14:51:00
11:51 AM,69.1,64.9,87,29.96,6.0,Calm,Calm,-,0.02,Rain,Light Rain,0,2013-08-01 15:51:00
12:13 PM,69.8,64.4,83,29.94,3.0,Calm,Calm,-,0.05,Rain,Light Rain,0,2013-08-01 16:13:00
12:44 PM,69.8,66.2,88,29.94,5.0,SW,4.6,-,0.07,Rain,Light Rain,220,2013-08-01 16:44:00
12:51 PM,69.1,66.0,90,29.94,5.0,Calm,Calm,-,0.07,Rain,Rain,0,2013-08-01 16:51:00
1:51 PM,69.1,66.0,90,29.93,6.0,ESE,3.5,-,0.13,Rain,Light Rain,120,2013-08-01 17:51:00
2:51 PM,69.1,64.9,87,29.91,5.0,SSE,6.9,-,0.05,Rain,Light Rain,150,2013-08-01 18:51:00
3:02 PM,69.8,66.2,88,29.91,2.5,Variable,6.9,-,0.08,Rain,Rain,0,2013-08-01 19:02:00
3:10 PM,69.8,66.2,88,29.90,1.5,SE,5.8,-,0.13,Rain,Heavy Rain,130,2013-08-01 19:10:00
3:25 PM,69.8,66.2,88,29.90,5.0,SE,5.8,-,0.21,Rain,Light Rain,130,2013-08-01 19:25:00
3:51 PM,69.1,66.0,90,29.89,6.0,ESE,9.2,-,0.23,Rain,Light Rain,120,2013-08-01 19:51:00
4:51 PM,71.1,66.9,87,29.87,9.0,SE,6.9,-,0.02,,Overcast,130,2013-08-01 20:51:00
5:51 PM,71.1,68.0,90,29.86,7.0,SSE,6.9,-,0.03,Rain,Light Rain,150,2013-08-01 21:51:00
5:56 PM,71.6,68.0,88,29.86,7.0,Variable,6.9,-,0.00,Rain,Light Rain,0,2013-08-01 21:56:00
6:51 PM,71.1,68.0,90,29.86,5.0,Variable,3.5,-,0.02,Rain,Light Rain,0,2013-08-01 22:51:00
7:24 PM,71.6,69.8,94,29.85,2.5,SE,4.6,-,0.04,Rain,Light Rain,140,2013-08-01 23:24:00
7:51 PM,71.1,69.1,93,29.86,2.5,South,6.9,-,0.05,Rain,Light Rain,170,2013-08-01 23:51:00
8:51 PM,71.1,69.1,93,29.85,7.0,South,9.2,-,0.00,,Light Drizzle,180,2013-08-02 00:51:00
9:51 PM,71.1,69.1,93,29.86,10.0,SSW,6.9,-,0.00,,Overcast,200,2013-08-02 01:51:00
10:51 PM,71.1,69.1,93,29.84,10.0,SW,5.8,-,N/A,,Overcast,220,2013-08-02 02:51:00
11:37 PM,71.6,69.8,94,29.85,9.0,SW,4.6,-,0.06,,Overcast,230,2013-08-02 03:37:00
11:51 PM,71.1,70.0,96,29.84,9.0,WSW,3.5,-,0.06,,Overcast,240,2013-08-02 03:51:00